This demonstration page uses our WeatherBlox Daily Observations layout. Learn more.

Left ArrowRight Arrow

47.50024, -111.30081

Hourly Observations for August 15, 2022

Temp ( °F °C ) Dew Point ( °F °C ) Humidity (%) Winds ( mph kmh ) Pressure ( in mb ) Visibility ( mi km ) Precip ( " mm )
12:53 am 00:53 Clear 57 13.9 33 0.6 40 40 WNW 8 13 30.00 1016 10 16 0.00 0.00
1:53 am 01:53 Clear 62 16.7 34 1.1 35 35 NNE 7 11 29.98 1015 10 16 0.00 0.00
2:53 am 02:53 Clear 56 13.3 34 1.1 43 43 WSW 7 11 29.98 1015 10 16 0.00 0.00
3:53 am 03:53 Clear 55 12.8 34 1.1 45 45 SSW 9 15 29.99 1016 10 16 0.00 0.00
4:53 am 04:53 Clear 52 11.1 34 1.1 50 50 SW 8 13 30.00 1016 10 16 0.00 0.00
5:53 am 05:53 Clear 51 10.6 35 1.7 54 54 SW 8 13 30.00 1016 10 16 0.00 0.00
6:53 am 06:53 Sunny 53 11.7 35 1.7 50 50 SW 8 13 30.01 1016 10 16 0.00 0.00
7:53 am 07:53 Sunny 62 16.7 36 2.2 38 38 SSW 7 11 30.01 1016 10 16 0.00 0.00
8:53 am 08:53 Sunny 68 20 34 1.1 28 28 W 8 13 30.03 1017 10 16 0.00 0.00
9:53 am 09:53 Sunny 72 22.2 34 1.1 25 25 WSW 6 9 30.02 1017 10 16 0.00 0.00
10:53 am 10:53 Sunny 77 25 35 1.7 22 22 WSW 6 9 30.02 1017 10 16 0.00 0.00
11:53 am 11:53 Sunny 80 26.7 35 1.7 20 20 VRB 5 7 30.01 1016 10 16 0.00 0.00
12:53 pm 12:53 Sunny 84 28.9 34 1.1 17 17 Calm 30.00 1016 10 16 0.00 0.00
1:53 pm 13:53 Sunny 89 31.7 31 -0.6 13 13 VRB 6 9 29.96 1015 10 16 0.00 0.00
2:53 pm 14:53 Sunny 90 32.2 31 -0.6 12 12 W 7 11 29.96 1015 10 16 0.00 0.00
3:53 pm 15:53 Sunny 91 32.8 32 0 12 12 undefined N/A 29.95 1014 10 16 0.00 0.00
4:53 pm 16:53 Sunny 92 33.3 31 -0.6 11 11 ENE 8 13 29.93 1014 10 16 0.00 0.00
5:53 pm 17:53 Sunny 91 32.8 29 -1.7 11 11 VRB 6 9 29.93 1014 10 16 0.00 0.00
6:53 pm 18:53 Sunny 90 32.2 28 -2.2 11 11 VRB 7 11 29.92 1013 10 16 0.00 0.00
7:53 pm 19:53 Sunny 85 29.4 30 -1.1 14 14 NNE 5 7 29.92 1013 10 16 0.00 0.00
8:53 pm 20:53 Clear 77 25 28 -2.2 16 16 NE 7 11 29.93 1014 10 16 0.00 0.00
9:53 pm 21:53 Clear 70 21.1 29 -1.7 22 22 NNE 6 9 29.96 1014 10 16 0.00 0.00
10:53 pm 22:53 Clear 71 21.7 32 0 24 24 E 6 9 29.96 1015 10 16 0.00 0.00
11:53 pm 23:53 Clear 68 20 37 2.8 32 32 Calm 29.95 1014 10 16 0.00 0.00

Powered by AerisWeather